World > North America > United States > Oregon > Milton-Freewater  

Milton-Freewater, OR Hourly Weather Updates

Feedback E-mail the Weather

Quick Clicks

Milton-Freewater, OR Weather Maps

°F °C°F °C
Milton-Freewater Weather Map
UTC Time: 6/24/2024, 13:59
Your Time:

Milton-Freewater, OR Regional Weather

Expires:202406241400;;579526
ASUS46 KPQR 241310
RWROR 

OREGON REGIONAL WEATHER ROUNDUP
NATIONAL WEATHER SERVICE PORTLAND OR
600 AM PDT MON JUN 24 2024

NOTE: "FAIR" INDICATES FEW OR NO CLOUDS BELOW 12,000 FEET WITH
NO SIGNIFICANT WEATHER AND/OR OBSTRUCTIONS TO VISIBILITY.


ORZ029>031-041-044-049-050-061>064-502-503-505>511-241400-
EASTERN OREGON

  
CITY           SKY/WX    TMP DP  RH WIND       PRES   REMARKS
MADRAS         CLEAR     39  36  87 SE5       30.08R                  
REDMOND        CLEAR     43  35  73 S7        30.05S                  
BEND           CLEAR     45  36  70 SW5       30.06R                  
PRINEVILLE     CLEAR     39  34  81 CALM      30.07R                  
KLAMATH FALLS  CLEAR     47  40  76 CALM      30.04S                  
LAKEVIEW       CLEAR     43  37  79 NW3       30.10R                  
HERMISTON      CLEAR     49  43  80 S3        30.03R                  
PENDLETON      CLEAR     51  42  71 S5        30.05R                  
JOHN DAY       CLEAR     51  39  62 CALM      30.06S                  
MEACHAM          N/A     39  35  86 CALM      30.07R                  
LA GRANDE      CLEAR     50  39  66 NW5       30.07R                  
BAKER CITY     CLEAR     51  36  56 W5        30.06R                  
BURNS          CLEAR     46  35  65 NE3       30.06R                  
ROME             N/A     56  30  37 SE6       30.04R                  
ONTARIO        CLEAR     64  35  34 W8        29.98R                  
$$


OTHER REGIONAL REPORTS
  
CITY           SKY/WX    TMP DP  RH WIND       PRES   REMARKS
SEATTLE        MOCLDY    53  48  83 CALM      30.10S                  
SPOKANE        PTCLDY    49  38  65 S9        30.00R                  
VANCOUVER BC   PTCLDY    54  50  87 E8        30.08R                  
PRINCE GEORGE  CLEAR     45  41  87 S10       29.93R                  
DAWSON CREEK   MOSUNNY   54  45  71 W15G21    29.72R                  
WHITEHORSE     MOCLDY    46  45  93 CALM      29.89R                  
BOISE          CLEAR     63  40  42 NW6       29.97R                  
REDDING        CLEAR     69  50  50 CALM      29.85R                  
SAN FRANCISCO  PTCLDY    52  49  89 W8        29.91R                  

$$

  

SKY/WX - Weather  TMP - Temperature  DP - Dew Point  RH - Humidity
WIND - Wind Direction/Speed PRES - Barometric Pressure VSB - Visibility
WCI - Wind Chill Index E13G22 Wind - East Wind 13 mph/Gusts of 22 mph

Trending Headlines

Trending Entertainment Headlines

Milton-Freewater Radar Loop

Use the map search tool if you want to place a location marker on the radar map...

Milton-Freewater Quick Facts

National Two Day Weather Forecast


E-mail the Milton-Freewater Weather Forecast

Voice your opinion or tell us about page issues...